Regional Weather Roundup
Issued by NWS Kansas City/Pleasant Hill, MO

Home | Current Version | Previous Version | Graphics & Text | Print | Product List | Glossary Off
Versions: 1 2 3 4 5 6 7 8 9 10 11 12 13 14 15 16 17 18 19 20 21 22 23 24 25 26 27 28 29 30 31 32 33 34 35 36 37 38 39 40 41 42 43 44 45 46 47 48 49

000
ASUS43 KEAX 290910
RWREAX

WEATHER ROUNDUP FOR EASTERN KANSAS AND NORTHWEST MISSOURI
NATIONAL WEATHER SERVICE KANSAS CITY/PLEASANT HILL MO
400 AM CDT SAT AUG 29 2015

KSZ040-057-103>105-MOZ028-029-037-043-291000-
...KANSAS CITY METROPOLITAN AREA...

CITY           SKY/WX    TMP DP  RH WIND       PRES   REMARKS
K.C. INTL      CLOUDY    70  68  93 W5        29.93S
K.C. DOWNTOWN  CLOUDY    73  69  87 SW5       29.92R
LEES SUMMIT    PTCLDY    71  67  87 SW6       29.94S
OLATHE - IXD   CLOUDY    70  69  97 W5        29.95R
OLATHE - OJC   CLOUDY    69  68  96 SW3       29.94R
LAWRENCE       CLOUDY    70  66  87 NW6       29.94R

$$

MOZ001>008-011>017-020>025-030>033-038>040-044>046-053-054-291000-
...NORTHERN AND CENTRAL MISSOURI...

CITY           SKY/WX    TMP DP  RH WIND       PRES   REMARKS
ST. JOSEPH     MOCLDY    67  65  93 NW5       29.94R
MOSBY          CLOUDY    72  70  94 S3        29.92S
WARRENSBURG    CLEAR     68  63  83 S8        29.93F
WHITEMAN AFB   NOT AVBL
CLINTON          N/A     72  64  78 S5        29.96S
SEDALIA        CLEAR     70  62  76 S12       29.96S
WARSAW         NOT AVBL
CHILLICOTHE      N/A     70  68  93 CALM      29.94S
KIRKSVILLE     CLOUDY    68  63  84 SE5       29.96R

$$

MOZ041-047>049-056>058-063>065-088>090-097-291000-
...EASTERN AND SOUTHERN MISSOURI...

CITY           SKY/WX    TMP DP  RH WIND       PRES   REMARKS
ST. LOUIS INTL CLOUDY    73  62  68 SE6       30.02
SPIRIT OF STL  CLOUDY    67  65  93 CALM      30.00F
COLUMBIA       CLOUDY    68  63  84 S8        29.97F
JEFFERSON CITY CLOUDY    70  62  76 SE8       29.97S
ROLLA          CLOUDY    69  61  75 S9        29.99F
OSAGE BEACH    CLOUDY    70  59  68 SE5       29.98S
SPRINGFIELD    CLOUDY    71  59  65 S12       29.99S
BRANSON        CLOUDY    66  63  88 CALM      30.03S
JOPLIN         CLOUDY    72  63  73 S8        29.98S
WEST PLAINS    MOCLDY    71  60  68 S7        30.05F

$$

IAZ060-094-KSZ022-034>040-054-083-096-NEZ052-066-093-291000-
...KANSAS...SOUTHEAST NEBRASKA AND IOWA...

CITY           SKY/WX    TMP DP  RH WIND       PRES   REMARKS
TOPEKA         PTCLDY    66  63  90 NW3       29.96R
MANHATTAN      CLOUDY    67  64  90 VRB5      29.98R
EMPORIA        CLEAR     66  64  93 NW6       29.97S
CHANUTE        PTCLDY    69  67  93 S7        29.96S
WICHITA        CLEAR     71  65  81 N8        29.98S
OMAHA          CLOUDY    63  61  93 N9        29.99R
LINCOLN        CLOUDY    63  60  90 N10       30.01R
FALLS CITY     CLOUDY    65  64  97 NW6       29.96R
LAMONI         CLOUDY    70  68  93 W3        29.94R FOG
DES MOINES     DRIZZLE   65  63  93 N9        29.94R FOG

$$



USA.gov is the U.S. government's official web portal to all federal, state and local government web resources and services.